Regional Weather Roundup
Issued by NWS

Home | Current Version | Previous Version | Text Only | Print | Product List | Glossary Off
Versions: 1 2 3 4 5 6 7 8 9 10 11 12 13 14 15 16 17 18 19 20 21 22 23 24 25 26 27 28 29 30 31 32 33 34 35 36 37 38 39 40 41 42 43 44 45 46 47 48 49 50

000
ASUS45 KCYS 010810
RWRWY

WYOMING REGIONAL WEATHER ROUNDUP
NATIONAL WEATHER SERVICE CHEYENNE WY
100 AM MST SUN MAR 01 2015

NOTE:  "FAIR" INDICATES FEW OR NO CLOUDS BELOW 12,000 FEET
WITH NO SIGNIFICANT WEATHER AND/OR OBSTRUCTIONS TO VISIBILITY.

WYZ001-010900-
YELLOWSTONE NATIONAL PARK

CITY           SKY/WX    TMP DP  RH WIND       PRES   REMARKS
LK YELLOWSTONE   N/A     -9 -13  83 CALM      30.01R
W YELLOWSTONE  NOT AVBL

$$
WYZ002>013-054>058-071-098>099-010900-
NORTHERN WYOMING

CITY           SKY/WX    TMP DP  RH WIND       PRES   REMARKS
JACKSON        FAIR      10   5  79 NE13      30.00R WCI  -5
CODY           FAIR       9   9 100 S5        30.12R WCI   0
GREYBULL       FAIR      16   8  71 NW12      30.18R WCI   3
WORLAND        CLOUDY    22  11  62 N8        30.16R WCI  12
SHERIDAN       FAIR       3  -3  76 CALM      30.15S
BUFFALO        FAIR       7  -1  70 W5        30.10R WCI  -2
GILLETTE       CLOUDY     7   3  84 SW3       30.13R
HULETT         FAIR      12   7  79 MISG      30.14R
NEWCASTLE      FAIR      14   7  73 NW3       30.15R

$$
WYZ014>020-022>026-101>103-010900-
CENTRAL WYOMING

CITY           SKY/WX    TMP DP  RH WIND       PRES   REMARKS
BIG PINEY      CLOUDY    14   7  73 SE6       30.00R WCI   5
PINEDALE       CLOUDY     9   5  85 NW5       30.00R WCI   0
DUBOIS         FLURRIES  12   5  73 W6        29.99R WCI   3
LANDER         FLURRIES  16  12  84 CALM      30.07S
RIVERTON       CLOUDY    16   9  74 S3        30.09R
CASPER         LGT SNOW  14  10  84 N5        30.09R FOG     WCI   6
DOUGLAS        CLOUDY    17  13  84 CALM      30.12R

$$
WYZ021-027>030-104>119-010900-
SOUTHERN WYOMING

CITY           SKY/WX    TMP DP  RH WIND       PRES   REMARKS
EVANSTON       FAIR      19  17  92 E12       29.94R WCI   7
FORT BRIDGER   CLOUDY    19  19  99 E6        29.99R WCI  11
ROCK SPRINGS   MOCLDY    11   6  81 NE13      30.00R WCI  -4
DIXON          FLURRIES  22  19  89 W3        29.98R
RAWLINS        LGT SNOW  13   8  81 N5        29.97R WCI   5
SARATOGA       LGT SNOW  14  12  92 W6        29.96R WCI   5
LARAMIE        LGT SNOW  15  11  83 E3        29.91R FOG
CHEYENNE       LGT SNOW  17  13  84 N3        29.98R FOG
TORRINGTON     CLOUDY    20  13  74 N12       30.10R WCI   8
PINE BLUFFS    CLOUDY    19  18  93 CALM      30.05R

$$


USA.gov is the U.S. government's official web portal to all federal, state and local government web resources and services.